Regional Weather Roundup
Issued by NWS Green Bay, WI

Home | Current Version | Previous Version | Text Only | Print | Product List | Glossary On
Versions: 1 2 3 4 5 6 7 8 9 10 11 12 13 14 15 16 17 18 19 20 21 22 23 24 25 26 27 28 29 30 31 32 33 34 35 36 37 38 39 40 41 42 43 44 45 46 47 48 49 50
000
ASUS43 KGRB 031411
RWRGRB

NORTH-CENTRAL AND NORTHEAST WISCONSIN REGIONAL WEATHER ROUNDUP
NATIONAL WEATHER SERVICE GREEN BAY WI
800 AM CST SAT DEC 03 2016

WIZ005-009-010>012-018-019-031500-
NORTH CENTRAL WISCONSIN

CITY           SKY/WX    TMP DP  RH WIND       PRES   REMARKS
IRONWOOD       FLURRIES  29  27  92 SW5       30.26S
MANITOWISH WTR CLOUDY    26  26 100 SW5       30.24S
ARBOR VITAE    CLOUDY    27  25  93 CALM      30.25R
EAGLE RIVER    CLOUDY    27  26  99 CALM      30.24S
LAND O LAKES   CLOUDY    28  26  91 W3        30.26R
RHINELANDER    CLOUDY    27  23  85 W8        30.26S
PHILLIPS       CLOUDY    26  26  96 SW3       30.26R
ANTIGO         CLOUDY    26  23  90 W7        30.27R
TOMAHAWK       CLOUDY    26  21  80 CALM      30.27S
MERRILL        MIX PCPN  27  24  86 CALM      30.28S
$$

WIZ013-073-031500-
NORTHEAST WISCONSIN

CITY           SKY/WX    TMP DP  RH WIND       PRES   REMARKS
IRON MOUNTAIN  CLOUDY    32  26  78 W3        30.24S
MARINETTE      CLOUDY    33  28  81 W7        30.29
OCONTO         CLOUDY    32  27  80 W5        30.30R
$$

WIZ017-030-035>037-045-031500-
CENTRAL WISCONSIN

CITY           SKY/WX    TMP DP  RH WIND       PRES   REMARKS
MEDFORD        CLOUDY    27  21  79 W3        30.26S
WAUSAU         CLOUDY    28  22  78 NW3       30.27S
MOSINEE        CLOUDY    28  25  86 W6        30.29R
MARSHFIELD     CLOUDY    29  22  75 W6        30.27S
WISC RAPIDS    CLOUDY    30  23  75 W5        30.32R
STEVENS POINT  CLOUDY    28  22  78 CALM      30.30S
WAUPACA        CLOUDY    33  24  70 CALM      30.32R
SHAWANO        CLOUDY    32  25  74 W3        30.31R
CLINTONVILLE   CLOUDY    32  23  69 W7        30.31R
WAUTOMA        CLOUDY    31  23  72 W3        30.32S
$$

WIZ038-039-048-051-031500-
FOX VALLEY

CITY           SKY/WX    TMP DP  RH WIND       PRES   REMARKS
NWS GREEN BAY  CLOUDY    33  26  75 W14       30.31R
APPLETON       CLOUDY    30  21  69 W6        30.30R
OSHKOSH        CLOUDY    31  24  75 W5        30.32R
FOND DU LAC    CLOUDY    31  23  72 W3        30.33R
$$

WIZ022-050-052-031500-
EAST CENTRAL WISCONSIN

CITY           SKY/WX    TMP DP  RH WIND       PRES   REMARKS
EPHRAIM        CLOUDY    34  30  86 W6        30.27R
WASHINGTON ISL CLOUDY    35  30  82 NW7       30.26S
STURGEON BAY   CLOUDY    33  28  81 W8        30.29S
MANITOWOC      CLOUDY   N/A N/A N/A MISG      30.31R
SHEBOYGAN      CLOUDY    31  24  75 W9        30.33R
$$

LMZ563-521-522-541>543-031500-
LAKESHORE

STATION/POSITION TIME  TEMP    WIND        PRES    VSBY  WAVE
                       AIR SEA DIR/SP/G                  HT/PER
                 (UTC) (F)     (DEG/KT/KT) (MB)    (MI)  (FT/S)
SHEBOYGAN LKSHOR 1300   32     260/  7/  9 1027.1R
KEWAUNEE LKSHORE 1348   32     280/  6/ 10 1025.3R
ALGOMA MARINA    1336          290/  5/  9   N/A
NORTHPORT PIER   1250   37     290/  8/ 11 1024.7
SISTER BAY LKSHO 1338   37     340/ 11/ 12   N/A
CHAMBERS ISLAND  1340   35     250/  3/  7 1024.7R
MENOMINEE LKSHOR 1348   33     230/  8/ 10 1024.6S
$$



USA.gov is the U.S. government's official web portal to all federal, state and local government web resources and services.